Phoenix, AZ

8:00 AM MST on April 28, 2017 (GMT -0700)
Phoenix Sky Harbor International

Weather History for KPHX - February, 2013

Change the Weather History Date:

Thursday, February 28, 2013

  Actual Average Record
Temperature  
Mean Temperature 57 °F 62 °F  
Max Temperature 72 °F 73 °F 89 °F (1986)
Min Temperature 42 °F 51 °F 30 °F (1962)
Degree Days  
Heating Degree Days 8 4  
Month to date heating degree days 215 163  
Since 1 July heating degree days 847 833  
Cooling Degree Days 0 1  
Month to date cooling degree days 3 15  
Year to date cooling degree days 8 17  
Growing Degree Days 7 (Base 50)    
Moisture  
Dew Point 13 °F    
Average Humidity 22    
Maximum Humidity 37    
Minimum Humidity 7    
Precipitation  
Precipitation 0.00 in 0.04 in 0.75 in (1905)
Month to date precipitation 0.31 0.92  
Year to date precipitation 1.70 1.83  
Snow  
Snow 0.00 in - - ()
Month to date snowfall 0.0  
Year to date snowfall 0.0  
Since 1 July snowfall 0.0  
Snow Depth 0.00 in    
Sea Level Pressure  
Sea Level Pressure 30.24 in    
Wind  
Wind Speed 5 mph (NNE)    
Max Wind Speed 14 mph    
Max Gust Speed 18 mph    
Visibility 10 miles    
Events      
T = Trace of Precipitation, MM = Missing Value Source: NWS Daily Summary

Daily Weather History Graph

Daily Weather History Graph

Search for Another Location

Airport or City:

Trip Planner

Search our weather history database for the weather conditions in past years. The results will help you decide how hot, cold, wet, or windy it might be!

Date:

Astronomy

Feb. 28, 2013 Rise Set
Actual Time 6:57 AM MST 6:24 PM MST
Civil Twilight 6:32 AM MST 6:49 PM MST
Nautical Twilight 6:03 AM MST 7:18 PM MST
Astronomical Twilight 5:34 AM MST 7:46 PM MST
Moon 9:41 PM MST 8:20 AM MST
Length of Visible Light 12h 17m
Length of Day
11h 27m
Waning Gibbous, 90% of the Moon is Illuminated
Feb 28
Waning Gibbous
Mar 4
Last Quarter
Mar 11
New
Mar 19
First Quarter
Mar 27
Full

Hourly Weather History & Observations

Time (MST) Temp. Windchill Dew Point Humidity Pressure Visibility Wind Dir Wind Speed Gust Speed Precip Events Conditions
1:51 AM 51.1 °F - 16.0 °F 25% 30.21 in 10.0 mi Calm Calm - N/A   Partly Cloudy
2:51 AM 46.9 °F - 19.0 °F 33% 30.20 in 10.0 mi Calm Calm - N/A   Clear
3:51 AM 46.0 °F - 21.0 °F 37% 30.21 in 10.0 mi Calm Calm - N/A   Clear
4:51 AM 45.0 °F - 19.0 °F 36% 30.22 in 10.0 mi Calm Calm - N/A   Clear
5:51 AM 46.0 °F - 18.0 °F 33% 30.25 in 10.0 mi Calm Calm - N/A   Clear
6:51 AM 44.6 °F 43.1 °F 19.4 °F 37% 30.28 in 10.0 mi East 3.5 mph - N/A   Clear
7:51 AM 46.4 °F 44.3 °F 17.6 °F 32% 30.29 in 10.0 mi East 4.6 mph - N/A   Clear
8:51 AM 52.0 °F - 12.9 °F 21% 30.30 in 10.0 mi East 5.8 mph - N/A   Clear
9:51 AM 57.9 °F - 10.0 °F 15% 30.29 in 10.0 mi ENE 9.2 mph - N/A   Clear
10:51 AM 62.1 °F - 8.1 °F 12% 30.28 in 10.0 mi ENE 10.4 mph - N/A   Clear
11:51 AM 64.9 °F - 7.0 °F 10% 30.27 in 10.0 mi ESE 8.1 mph - N/A   Clear
12:51 PM 66.0 °F - 8.1 °F 10% 30.26 in 10.0 mi NE 5.8 mph - N/A   Clear
1:51 PM 69.8 °F - 5.0 °F 8% 30.24 in 10.0 mi Variable 5.8 mph - N/A   Partly Cloudy
2:51 PM 69.1 °F - 3.9 °F 8% 30.22 in 10.0 mi WNW 6.9 mph - N/A   Partly Cloudy
3:51 PM 71.1 °F - 9.0 °F 9% 30.20 in 10.0 mi West 10.4 mph - N/A   Partly Cloudy
4:51 PM 71.1 °F - 6.1 °F 8% 30.20 in 10.0 mi WNW 9.2 mph - N/A   Clear
5:51 PM 70.0 °F - 7.0 °F 9% 30.20 in 10.0 mi WNW 11.5 mph - N/A   Clear
6:51 PM 68.0 °F - 10.0 °F 11% 30.21 in 10.0 mi West 6.9 mph - N/A   Clear
7:51 PM 64.9 °F - 10.9 °F 12% 30.22 in 10.0 mi West 4.6 mph - N/A   Clear
8:51 PM 64.0 °F - 12.9 °F 14% 30.24 in 10.0 mi Calm Calm - N/A   Clear
9:51 PM 64.0 °F - 12.9 °F 14% 30.24 in 10.0 mi NNW 3.5 mph - N/A   Clear
10:51 PM 55.0 °F - 21.9 °F 28% 30.27 in 10.0 mi Calm Calm - N/A   Clear
11:51 PM 53.1 °F - 27.0 °F 37% 30.28 in 10.0 mi South 3.5 mph - N/A   Clear